Location: Lhota
(50.0887°N, 14.0116°E)
Time: 17:25:46
(UTC+00:00)

CZ-2C R/B - Pass Details

Date: 19 May 2025
Orbit: 631 x 693 km, 98.1° (Epoch: 16 June)

Event Time Altitude Azimuth Distance (km) Brightness Sun altitude
Rises 21:35:53 0° 18° (NNE) 2,940 7.9 -17.5°
Reaches altitude 10° 21:38:09 10° 24° (NNE) 2,025 6.8 -17.6°
Maximum altitude 21:42:26 50° 100° (E) 807 3.9 -17.8°
Enters shadow 21:43:46 37° 150° (SSE) 991 4.1 -17.9°
